GFSGL_sfc_wetblb_021.txt.gz
Wetbulb
58.24 57.83 60.45 60.78 60.81 61.33 60.40 61.60 61.02 60.65 60.74 61.29 61.55 61.58 61.58 61.70 61.29 61.36 62.59 61.21 60.03 59.53 59.59 59.08 59.33 59.22 58.42 59.26 60.12 60.40 59.46 60.19 58.01 59.10 61.05 61.97 62.44 62.19 63.89 63.56 62.80 59.71 58.70
58.42 58.03 59.54 60.38 61.00 60.63 60.80 60.91 60.93 61.21 61.02 61.35 61.85 61.94 62.12 61.59 60.98 61.65 62.13 61.34 59.96 59.21 58.16 58.00 58.81 59.21 57.99 58.75 59.32 58.67 58.65 59.59 59.44 57.59 59.48 60.93 61.02 62.22 62.65 61.64 61.62 61.27 57.68
58.57 56.93 58.56 59.83 60.12 60.55 60.86 62.17 61.16 61.08 61.50 61.68 61.16 61.60 62.12 62.25 61.66 61.12 61.58 61.26 60.65 59.31 58.88 58.92 59.40 59.73 58.65 58.95 58.63 58.17 58.03 60.41 59.54 58.65 57.75 57.62 59.00 59.51 59.35 57.68 54.57 53.27 55.56
57.99 56.65 56.80 59.10 59.71 59.87 60.53 61.94 62.04 61.35 61.58 61.98 61.95 62.23 62.90 62.83 62.35 62.76 61.60 60.55 60.90 60.53 60.22 59.98 60.14 59.96 59.42 59.44 59.84 58.75 58.69 58.40 58.45 57.24 55.52 54.11 55.14 55.19 56.16 53.76 55.25 56.92 56.88
57.78 56.70 56.40 59.42 59.60 60.36 59.73 61.50 61.88 60.99 60.10 60.44 61.77 63.16 63.29 63.26 63.30 62.18 62.15 61.02 60.66 60.12 60.06 60.82 61.02 60.65 59.55 59.51 60.16 58.91 58.34 57.91 56.70 54.80 53.13 53.76 53.64 53.28 51.91 53.88 54.46 55.14 55.73
56.70 56.93 57.83 58.66 59.36 60.18 60.82 59.28 62.27 61.31 58.54 58.60 58.07 58.18 58.93 62.45 52.28 55.40 60.04 61.61 61.20 60.38 60.16 60.78 60.20 59.17 58.48 56.57 54.28 54.60 57.34 55.81 53.66 52.96 52.71 52.74 53.20 54.94 54.95 54.88 54.44 53.15 52.49
56.57 58.25 58.12 57.64 58.19 59.94 60.49 59.65 58.81 58.11 57.18 57.08 57.05 56.17 53.57 53.34 51.73 52.68 55.58 62.25 61.45 60.68 59.96 60.23 60.84 61.70 58.61 58.28 51.40 51.31 51.63 53.43 54.81 54.84 53.74 53.60 53.20 55.51 55.30 53.64 53.36 53.89 53.21
55.28 56.95 57.97 57.58 57.89 59.02 59.19 58.98 58.66 59.10 57.70 56.25 55.67 54.76 52.71 50.10 47.66 50.59 53.77 61.04 60.50 59.77 59.69 59.81 60.17 59.08 57.34 56.77 55.48 56.15 56.31 55.48 56.17 59.93 57.52 54.51 54.94 55.79 56.74 56.95 55.33 54.78 55.30
55.07 55.39 57.23 56.77 56.74 57.25 57.92 58.55 58.31 58.38 58.09 56.62 55.85 53.63 52.34 49.63 46.27 50.53 57.68 59.02 58.68 58.58 59.76 58.06 57.83 56.63 50.32 49.90 56.21 54.85 53.77 51.75 46.38 46.03 46.26 43.88 43.24 45.86 51.29 54.75 53.23 50.82 48.89
55.06 55.94 56.63 56.14 56.86 56.10 57.82 58.62 58.56 58.91 57.83 58.44 56.95 53.97 51.44 50.73 44.35 44.74 54.66 58.77 56.92 53.74 52.00 52.28 51.96 51.89 44.58 49.34 55.13 54.59 52.67 51.20 47.84 47.29 47.28 44.81 44.81 45.91 46.89 48.85 50.14 46.69 45.40
56.39 56.60 55.43 55.23 56.71 56.42 58.84 59.17 58.88 59.15 58.43 57.75 57.89 55.42 53.81 50.61 46.78 42.32 45.12 55.75 56.18 54.31 52.57 49.86 51.14 43.27 43.69 46.31 50.11 53.45 51.35 50.12 49.54 51.13 50.72 52.12 52.49 52.47 49.21 50.79 49.49 47.53 45.72
56.57 56.74 55.59 54.82 58.21 59.10 58.72 58.86 59.03 58.48 57.40 56.87 56.40 55.67 55.85 51.79 46.57 41.57 42.14 45.64 46.07 52.85 51.84 50.34 45.74 40.52 40.51 41.59 42.43 40.96 44.05 46.81 48.85 48.86 49.50 50.43 49.53 49.69 49.81 47.55 47.34 47.36 49.28
55.94 55.02 56.05 55.92 55.93 59.11 59.09 58.53 57.87 57.49 57.60 55.65 55.94 54.49 55.01 53.33 48.03 41.77 40.65 43.93 45.47 53.40 50.46 48.40 40.50 39.61 40.33 40.26 40.35 43.04 44.53 46.91 47.56 49.53 47.39 45.09 44.64 45.09 45.47 45.72 46.06 48.29 48.56
55.67 55.72 56.42 54.62 55.72 58.44 59.91 59.50 58.27 56.54 55.87 54.53 54.65 53.58 54.07 52.96 47.46 41.75 42.10 44.72 45.01 44.57 44.17 42.29 40.58 40.40 41.11 41.29 39.42 39.89 44.04 47.00 49.38 48.07 45.19 45.39 44.96 44.09 44.00 45.53 46.19 46.30 45.84
56.25 57.29 55.94 55.62 56.48 56.66 58.22 58.68 57.73 56.88 55.85 54.87 53.46 53.69 52.91 53.92 51.86 44.85 44.42 46.41 48.87 47.75 46.17 44.00 43.22 42.03 44.15 45.90 47.36 45.14 47.57 50.06 48.34 45.35 44.63 43.93 44.20 44.91 45.90 46.32 45.33 43.54 41.01
56.97 57.53 56.50 55.59 56.42 57.06 56.59 55.02 42.56 46.00 47.14 47.67 47.79 51.74 54.21 51.55 45.21 42.34 42.62 43.80 44.95 45.01 50.54 49.56 48.70 48.44 48.36 48.93 50.18 49.75 49.40 47.19 45.81 44.80 43.97 44.32 43.59 42.80 42.25 42.62 43.00 40.60 38.80
57.47 57.89 57.36 55.53 56.94 56.52 56.66 56.06 52.79 46.60 42.74 42.10 44.12 45.73 48.11 48.13 43.85 41.74 42.14 41.77 42.43 43.05 49.28 51.17 51.31 52.11 51.80 52.94 49.28 47.55 44.88 44.38 44.97 46.38 44.61 44.27 42.83 43.05 43.06 40.96 40.71 40.29 39.47
57.34 50.51 58.21 57.56 56.44 56.74 56.55 56.25 55.75 51.70 48.90 48.42 44.02 43.87 42.66 42.53 42.26 41.38 40.39 42.02 44.44 45.32 48.77 49.91 51.35 54.25 54.34 49.65 47.00 45.52 44.67 44.78 44.03 43.57 42.76 43.85 43.93 42.72 40.60 40.22 40.00 38.48 37.25
59.63 57.74 58.32 58.18 57.70 55.79 56.61 56.35 55.19 54.58 52.26 52.27 47.69 43.38 38.10 38.38 38.64 39.04 40.91 50.99 49.97 49.39 49.46 50.80 53.55 52.20 49.89 47.87 46.26 44.78 44.82 46.08 44.04 43.64 44.04 43.41 42.60 41.82 40.43 39.32 37.48 35.23 36.07
60.19 53.03 54.91 57.62 56.68 57.16 56.40 56.02 55.57 53.68 53.60 53.33 50.74 49.07 42.58 43.42 44.24 44.61 47.19 50.36 49.94 50.39 49.75 51.59 48.72 48.37 47.15 46.18 45.71 45.51 43.65 43.53 44.46 43.77 42.02 41.78 42.09 41.01 39.49 38.84 38.38 37.63 36.20
60.76 57.65 50.95 57.84 57.20 57.33 57.35 56.29 55.71 55.12 53.82 53.99 53.24 49.57 40.76 49.22 48.31 48.88 49.79 50.88 51.55 53.31 53.72 50.91 48.63 46.99 46.24 46.55 45.46 44.12 45.09 45.72 44.73 43.12 42.75 43.19 42.34 40.83 39.69 39.92 38.81 38.62 37.72
61.46 60.10 57.30 58.27 57.97 57.46 56.65 57.06 55.87 55.31 54.57 53.95 54.16 50.22 38.88 52.10 51.65 51.49 51.52 52.46 52.34 54.25 53.02 49.50 48.26 48.07 47.87 46.35 45.35 45.76 43.92 43.86 43.76 43.85 43.38 41.95 41.01 40.77 40.78 40.00 39.37 38.24 37.67
61.46 60.67 58.78 58.47 58.33 51.48 52.04 56.49 56.24 56.17 55.56 54.62 54.77 50.97 47.69 52.25 52.30 52.47 52.62 52.71 55.32 52.82 50.80 49.22 48.78 47.80 47.06 46.30 46.08 45.52 44.15 43.85 44.60 44.64 42.93 42.57 41.29 40.46 40.89 37.86 38.68 37.12 35.87
59.09 59.09 59.45 58.84 58.18 56.89 57.21 56.24 54.39 48.64 55.62 55.30 54.11 51.41 50.70 51.56 52.74 52.74 53.61 55.08 53.31 51.58 50.97 49.80 48.22 44.90 42.95 44.42 44.65 44.86 45.24 44.73 44.72 44.00 43.11 42.61 40.66 39.18 40.27 38.13 36.54 37.31 33.88
57.41 58.47 58.45 59.06 58.61 57.78 57.39 55.40 57.15 55.04 55.22 53.33 51.64 50.93 51.46 51.98 52.71 53.75 52.55 51.17 50.51 48.70 45.74 44.92 44.51 43.50 43.54 42.49 40.76 39.44 34.99 35.32 40.48 38.17 43.01 42.50 41.24 39.61 36.93 34.75 35.58 32.91 30.93
57.34 58.15 58.24 58.45 58.23 57.53 56.23 55.57 55.75 56.21 54.86 54.38 52.38 51.50 53.24 51.37 51.08 51.11 50.42 47.69 45.32 44.04 44.00 43.90 43.83 42.47 41.37 40.23 38.38 34.31 33.65 33.67 34.89 34.56 41.20 40.43 37.40 35.14 34.37 34.16 34.44 30.64 29.86

GFSGL_sfc_wetblb_024.txt.gz
Wetbulb
57.51 58.31 59.11 59.38 59.67 59.79 60.08 60.44 59.20 58.99 59.90 59.74 59.94 60.32 59.97 60.17 60.42 60.85 59.91 60.15 59.75 58.68 58.28 59.22 58.30 57.22 58.04 58.68 58.89 60.27 60.03 60.01 58.04 59.63 61.62 62.73 62.36 63.19 63.57 62.63 61.81 60.04 59.27
56.29 58.57 58.53 59.23 59.59 59.16 60.02 58.97 59.28 59.05 59.99 60.10 60.37 60.37 60.28 59.78 60.68 60.90 59.90 59.88 58.95 58.13 58.34 58.98 58.18 58.64 57.28 58.28 59.39 59.77 59.95 60.09 59.52 58.42 60.67 61.18 61.19 61.07 62.58 62.66 62.56 61.15 58.50
56.62 56.83 58.18 58.60 59.40 58.99 59.08 59.22 60.79 60.90 59.78 60.58 60.78 60.39 60.99 60.86 61.24 60.85 59.92 59.06 58.72 58.44 58.71 58.49 58.30 57.72 57.26 59.08 59.08 59.05 59.81 60.57 59.97 59.56 58.63 59.30 60.17 60.88 60.80 58.14 56.76 57.39 58.12
55.84 56.05 57.78 57.94 58.82 59.18 59.81 58.92 59.29 60.20 60.22 60.51 61.73 62.27 61.88 61.78 61.98 61.85 60.97 59.96 59.15 58.48 58.74 59.44 59.37 59.37 58.71 59.14 59.04 58.12 58.64 58.93 58.91 57.98 56.80 55.50 57.33 56.36 57.04 56.54 54.25 53.44 53.01
55.60 54.74 57.55 58.05 58.62 58.77 60.34 60.04 60.20 59.80 60.54 62.41 62.39 62.59 62.61 62.40 61.93 61.07 60.75 60.00 59.62 59.67 59.36 60.37 60.52 59.77 58.74 59.22 59.62 58.38 58.26 57.74 57.52 55.40 53.13 53.04 53.10 52.78 54.15 52.86 52.54 52.83 53.83
55.69 54.79 57.75 57.85 58.57 59.01 59.24 59.94 59.49 56.91 59.17 60.76 61.86 62.34 61.55 61.67 51.50 54.40 59.05 60.38 60.22 60.06 59.69 60.09 59.82 58.90 57.72 55.30 54.66 55.35 57.57 57.41 55.26 53.44 52.02 51.34 51.00 52.00 52.04 52.31 52.00 51.69 52.29
55.99 56.21 57.56 57.51 58.07 59.21 58.24 59.62 56.63 55.49 55.38 55.24 55.92 57.07 58.87 58.40 48.96 50.77 53.85 61.19 60.22 60.00 60.24 60.18 60.39 61.18 58.78 59.11 52.22 51.20 51.32 51.98 53.72 54.13 52.69 52.15 51.51 53.67 53.18 52.17 51.94 51.92 51.72
56.02 56.69 56.44 56.68 57.90 58.43 57.70 57.31 56.25 54.65 54.61 54.07 53.66 53.68 54.70 56.36 47.69 48.60 52.77 60.92 60.37 60.37 60.70 60.28 60.50 59.58 58.26 57.42 54.10 55.13 54.61 55.72 55.63 56.16 53.79 53.96 54.35 54.69 55.46 54.67 53.62 52.45 53.48
55.97 56.26 56.59 56.10 57.31 57.47 57.44 56.85 56.17 54.86 53.84 53.74 53.06 52.72 50.69 49.24 47.00 46.78 55.45 59.51 58.94 59.08 60.09 60.54 59.85 58.53 52.21 48.57 55.18 53.32 50.97 49.13 46.84 47.38 49.01 48.35 47.42 47.62 51.90 55.92 52.66 51.46 48.24
55.39 56.17 56.90 55.79 56.37 56.34 56.94 56.51 56.61 55.58 54.61 54.33 53.22 52.60 50.08 47.54 44.35 47.67 54.67 58.71 56.17 55.83 56.24 57.41 51.76 56.02 45.83 46.28 53.84 52.45 50.76 49.52 47.51 45.80 45.04 44.00 44.16 45.10 46.54 48.31 49.73 45.40 44.00
55.54 55.97 55.98 54.93 55.37 55.24 56.98 56.43 56.93 56.23 55.68 53.96 52.64 51.48 51.91 49.26 44.68 44.71 50.08 56.21 55.63 53.32 52.99 54.13 52.86 43.12 43.58 45.96 48.67 52.80 50.84 48.46 47.36 49.81 49.19 50.37 50.56 49.21 49.22 48.57 47.03 46.77 44.77
55.29 55.12 54.87 54.31 56.83 56.50 57.21 56.45 56.75 56.41 55.10 54.56 53.04 50.85 50.75 48.85 44.72 42.32 46.52 49.49 50.23 52.71 52.03 52.04 49.46 41.12 41.56 42.45 46.53 41.89 41.98 45.76 47.60 49.01 48.52 47.51 47.65 45.49 44.71 45.16 46.02 47.70 47.47
54.59 53.78 53.24 54.59 55.70 57.13 57.47 56.35 55.82 55.98 55.16 54.49 54.87 52.86 52.69 49.91 45.00 41.42 41.72 43.07 45.66 51.55 52.05 47.88 41.03 39.33 39.38 39.84 39.63 41.17 43.49 46.15 48.66 47.00 44.90 43.95 43.50 44.64 44.52 45.10 45.74 46.34 47.51
53.63 53.27 52.92 53.83 54.14 57.09 58.36 58.23 57.30 55.76 55.29 55.02 54.71 53.89 53.54 51.02 46.01 41.21 42.50 46.22 45.26 48.09 45.72 41.82 40.39 40.15 40.01 40.63 39.89 41.49 45.32 47.80 48.24 45.40 43.33 43.08 43.73 43.77 43.35 44.45 44.51 45.51 42.85
54.01 54.02 53.19 53.69 55.15 56.70 57.66 58.09 58.11 57.65 56.84 55.08 54.97 54.88 53.61 51.60 49.47 43.19 42.26 46.46 46.49 45.46 40.97 39.03 37.51 37.76 39.42 38.99 41.19 42.01 47.18 47.95 45.89 43.48 43.28 43.25 43.21 43.16 43.20 43.02 41.55 39.63 38.21
54.45 54.53 53.54 53.54 54.90 56.47 56.73 53.29 42.95 48.62 46.93 48.29 46.95 51.57 53.29 50.46 44.21 40.60 39.97 41.60 41.71 40.37 42.72 40.96 39.91 39.37 41.10 43.67 46.04 46.72 46.59 45.34 43.91 43.77 43.71 44.11 42.13 42.08 41.59 40.93 39.33 37.93 37.41
55.91 55.07 53.65 53.36 54.86 55.12 55.73 55.63 53.05 47.23 43.29 44.57 44.47 44.74 45.73 48.90 42.77 40.32 39.41 39.78 40.53 43.51 46.07 45.68 44.95 44.29 45.01 46.28 47.72 47.38 44.82 44.13 43.93 45.91 42.55 41.70 41.86 40.78 39.77 39.38 39.21 38.34 36.91
56.39 49.88 54.30 55.03 55.16 55.22 55.52 55.62 55.73 53.76 52.07 49.56 42.26 42.94 41.51 42.29 42.17 40.39 38.58 40.99 44.12 45.59 48.28 49.11 49.07 49.11 49.43 48.92 46.56 45.08 43.72 43.08 43.46 42.66 42.52 43.15 43.83 42.04 39.60 39.97 38.05 36.29 36.01
56.56 56.17 55.90 55.44 55.96 54.72 55.70 55.47 55.16 54.06 53.70 49.43 46.11 41.43 37.72 38.26 38.70 38.30 38.73 47.41 47.57 50.12 48.20 48.31 49.85 51.51 51.69 49.38 46.79 45.35 45.00 44.31 43.38 42.70 45.09 45.32 42.64 42.29 40.52 37.82 37.11 34.20 34.86
57.69 51.43 53.41 55.95 54.87 55.41 55.42 55.24 54.41 53.90 52.30 52.00 50.29 48.98 41.11 42.00 43.38 42.99 43.07 46.77 46.56 48.95 49.92 49.89 50.35 50.45 49.33 47.76 45.72 44.92 44.42 42.75 43.23 45.82 44.93 43.35 42.82 42.04 40.12 38.31 37.13 36.35 35.22
58.40 54.64 49.35 56.42 55.51 55.36 55.56 54.97 54.91 54.36 53.36 52.41 52.00 49.23 39.99 47.26 46.71 46.38 46.64 47.32 48.33 48.42 49.34 50.80 50.13 48.29 47.36 46.76 45.95 45.61 45.17 44.27 45.45 45.18 43.86 43.19 42.49 40.81 39.82 38.60 37.88 37.17 35.79
58.98 57.05 55.53 56.30 56.72 56.07 55.42 55.38 54.91 54.39 53.91 53.21 52.32 48.52 37.32 49.18 49.55 48.27 48.77 50.23 51.12 50.98 52.24 51.97 50.65 49.67 47.87 47.01 46.69 45.97 44.70 44.88 44.33 44.36 43.95 43.34 42.20 41.44 40.08 38.59 37.99 36.77 36.16
59.45 57.88 56.58 57.20 56.64 50.31 52.42 55.54 54.80 54.64 53.92 53.12 53.09 51.22 44.18 47.98 51.17 50.71 50.23 50.83 51.58 52.78 52.74 51.96 50.71 49.03 48.27 48.28 47.68 46.92 45.74 45.04 45.40 45.89 44.04 42.66 42.34 41.78 40.16 38.13 38.27 36.80 35.17
59.54 58.90 57.08 57.15 56.65 54.75 54.73 54.99 55.43 48.47 54.33 53.25 52.62 51.93 50.31 49.35 51.22 51.06 50.91 51.35 52.59 52.91 51.37 50.79 49.67 48.68 46.82 46.10 45.40 45.91 46.73 46.29 46.31 45.30 43.93 42.43 41.36 39.57 39.75 38.37 36.78 36.00 33.27
58.67 58.58 57.41 56.63 56.41 55.05 55.02 54.29 54.25 53.68 53.77 53.88 52.95 52.16 51.69 52.12 52.32 51.86 51.65 52.01 52.45 49.47 48.60 49.33 48.51 46.10 45.22 44.69 43.66 42.12 37.41 36.45 41.85 38.96 43.43 42.02 40.84 40.03 38.01 36.42 34.81 32.44 30.67
55.63 57.67 57.93 57.19 56.61 55.88 55.86 54.59 55.13 53.99 52.94 53.14 52.25 50.98 50.87 51.33 51.70 51.11 52.62 52.77 49.65 47.15 46.14 45.25 45.03 43.37 42.74 43.33 42.49 37.39 36.00 36.17 38.17 36.71 41.59 40.90 38.97 36.74 36.19 34.47 33.29 31.61 29.92

GFSGL_sfc_wetblb_030.txt.gz
Wetbulb
57.97 58.21 58.92 59.20 59.59 59.10 59.37 59.35 59.30 59.70 59.99 59.58 59.95 59.80 59.53 58.89 59.31 59.73 59.96 60.15 58.99 58.58 58.60 58.71 58.31 58.82 58.91 60.69 60.19 61.06 61.24 59.86 57.81 58.89 60.66 61.85 61.87 61.70 61.76 61.55 61.72 60.90 59.46
57.17 58.49 58.65 58.86 58.75 57.97 59.33 59.63 59.92 59.82 60.33 59.97 59.86 59.69 59.60 59.23 59.89 59.76 59.57 60.05 59.14 58.55 58.88 58.88 58.68 58.76 59.64 60.40 61.21 61.12 61.39 61.07 59.59 57.40 59.63 60.58 60.63 61.39 61.25 61.20 61.26 61.72 60.93
56.94 58.18 58.33 58.33 58.43 57.78 58.71 59.78 60.23 60.18 59.93 60.31 60.04 59.83 60.15 59.64 59.49 59.93 59.57 58.93 58.50 58.82 58.98 59.05 58.92 59.12 59.47 60.05 61.19 60.97 61.62 61.22 60.56 59.06 58.95 60.59 60.79 61.78 60.96 61.02 60.78 60.74 61.75
57.02 57.61 57.94 58.28 58.55 58.43 58.42 59.07 60.27 60.38 60.51 60.69 60.74 61.14 60.98 59.91 59.19 59.21 58.99 58.54 58.92 58.93 58.77 59.27 59.27 59.45 59.50 60.27 60.58 60.92 61.11 60.38 60.45 59.57 59.03 59.27 59.79 60.50 60.24 58.41 56.92 56.84 59.31
56.55 57.35 57.47 58.15 58.87 59.04 59.11 59.27 60.10 60.98 61.45 61.57 61.07 60.91 61.43 60.34 59.15 59.44 59.37 58.92 59.07 59.26 59.52 59.21 59.61 58.97 57.62 58.62 60.69 60.42 60.23 58.97 58.77 58.09 57.20 57.69 57.89 58.81 58.41 57.34 56.50 55.64 56.33
55.43 57.30 57.81 58.15 58.92 59.33 59.28 58.89 58.43 59.76 61.02 61.52 61.35 61.14 61.23 60.17 49.39 52.60 57.09 59.46 59.64 59.40 58.79 58.93 58.22 57.28 55.50 53.68 53.88 53.54 57.91 58.50 57.10 56.50 55.83 56.56 56.52 57.66 57.60 57.19 55.65 55.33 53.87
54.81 57.26 57.98 58.16 58.72 59.25 59.60 57.14 57.66 57.32 59.14 60.18 60.29 60.50 59.29 57.06 48.12 48.84 53.54 59.89 59.33 60.00 59.65 59.77 59.67 59.13 58.55 57.88 52.17 52.39 52.79 53.01 55.31 57.66 56.44 57.03 56.61 58.09 56.77 55.58 55.32 54.81 55.38
54.37 56.39 57.76 57.93 58.36 58.70 58.51 56.74 56.02 55.19 56.84 58.00 58.69 58.95 58.35 54.69 46.49 47.58 51.20 60.41 60.02 60.29 60.46 59.91 59.37 59.21 57.57 57.67 56.90 56.78 56.39 56.82 57.27 57.60 58.59 56.98 58.48 58.05 58.57 57.96 56.60 54.58 52.84
54.87 55.56 57.49 57.43 57.78 57.82 57.47 55.76 54.93 54.63 55.12 55.66 57.36 58.26 55.88 53.71 45.40 46.85 55.96 60.19 60.00 59.89 59.94 59.82 59.55 58.97 48.48 48.34 56.50 55.78 54.28 52.06 46.62 45.37 45.58 45.28 45.28 47.63 53.22 57.16 55.94 55.36 52.40
55.31 55.82 57.30 57.22 57.76 57.72 56.84 54.85 54.79 54.77 54.87 55.42 54.50 56.24 53.33 54.62 44.86 46.85 56.24 59.96 59.30 59.34 59.45 59.05 52.47 57.04 46.31 47.38 55.38 54.99 54.16 51.93 50.51 50.47 51.87 50.19 50.20 48.39 48.88 58.18 57.10 54.51 49.87
56.33 56.28 56.31 56.93 57.69 57.60 56.39 55.58 54.52 54.40 54.16 54.05 53.32 53.09 55.23 56.14 51.42 45.76 49.57 60.17 59.76 59.35 59.12 58.04 58.59 47.58 46.13 45.18 47.94 55.51 54.12 51.31 48.11 50.98 50.69 50.81 51.10 50.83 50.24 50.53 51.99 52.23 49.99
56.06 56.06 55.60 55.60 58.25 57.31 56.76 55.92 54.64 54.02 53.04 52.68 52.56 52.26 51.65 52.39 48.75 43.92 45.94 51.11 53.61 59.61 59.06 59.50 56.87 44.99 43.29 43.05 47.71 44.49 41.37 46.98 52.06 51.61 50.89 49.83 49.27 48.37 47.81 48.19 48.47 47.85 47.93
55.31 55.06 54.38 55.03 56.55 57.10 56.63 55.54 54.52 53.61 52.82 51.95 52.69 52.92 52.07 50.19 48.84 44.52 44.31 44.86 48.37 57.43 58.64 54.85 45.14 41.32 41.97 43.84 43.11 40.68 43.62 51.87 51.92 51.42 49.98 48.49 47.95 47.09 46.91 45.92 45.97 46.15 45.00
54.35 54.09 53.39 54.35 54.12 56.33 57.01 56.85 55.91 54.20 53.26 52.90 52.38 52.67 52.80 51.12 49.61 48.61 51.73 50.99 46.46 50.46 47.00 47.06 44.18 43.41 42.21 44.87 45.41 46.59 51.85 52.39 52.13 51.17 49.30 47.32 47.01 46.77 46.45 46.83 44.41 43.79 41.98
53.96 53.74 53.26 54.27 54.29 55.39 57.00 56.70 57.17 57.04 55.00 54.67 54.34 53.39 52.59 52.07 51.34 46.12 49.07 52.51 53.05 48.38 45.34 45.55 45.52 45.99 46.28 45.72 46.62 48.51 50.19 50.30 50.29 48.31 47.37 46.65 46.76 46.64 46.05 46.14 44.82 44.01 41.80
52.74 52.42 52.47 53.34 54.10 55.21 55.54 54.05 42.93 48.03 46.55 45.25 46.24 52.76 55.16 47.87 42.78 41.20 40.21 41.97 41.10 39.52 47.47 47.58 47.44 47.22 47.19 46.55 46.94 47.80 49.89 48.39 49.59 48.32 47.69 47.62 47.02 46.64 45.39 44.71 44.44 43.47 40.18
53.44 52.75 52.05 52.05 53.81 54.43 55.25 54.92 54.68 50.83 44.30 43.27 42.65 44.27 46.73 49.48 41.81 40.29 38.88 38.26 38.39 41.03 51.63 48.52 48.82 47.49 48.11 46.65 46.28 47.37 48.67 49.72 48.29 48.54 48.06 47.47 47.42 46.90 44.66 44.11 42.71 41.16 39.18
54.25 47.13 52.44 52.81 53.93 54.79 55.39 55.67 56.06 55.47 55.20 55.02 44.89 45.74 42.39 41.98 41.65 40.02 37.15 39.83 43.49 43.67 48.90 49.95 49.55 47.88 47.05 46.95 46.36 46.98 48.19 47.84 47.57 47.64 47.29 46.81 46.67 45.21 44.10 42.04 41.31 38.67 37.69
54.24 52.81 53.69 53.44 53.97 53.76 55.52 55.75 56.00 55.97 56.12 55.67 50.50 44.07 41.17 39.50 39.50 37.17 38.09 50.03 48.01 47.31 48.07 48.84 49.37 48.32 46.64 47.07 47.11 48.07 48.60 48.00 47.80 46.79 46.41 46.29 46.19 44.79 43.81 41.80 39.53 36.31 35.93
55.16 48.60 50.57 53.43 53.18 53.94 54.83 55.12 54.97 54.98 54.83 55.21 53.93 55.02 45.03 44.63 47.63 46.56 44.04 47.88 49.52 49.67 48.66 49.25 49.92 49.04 48.06 47.06 46.85 47.92 48.28 46.61 46.52 46.99 46.78 46.46 45.38 45.19 43.82 40.96 39.66 37.26 37.47
55.76 52.50 47.06 53.79 53.62 54.05 54.39 54.74 54.81 55.00 54.62 54.64 54.60 53.38 42.35 51.62 53.14 51.18 48.26 47.65 49.85 49.83 50.20 50.30 50.38 50.82 50.43 49.35 48.45 48.41 48.56 48.31 48.14 47.70 46.53 46.04 45.35 44.60 43.50 40.42 39.18 38.64 37.98
56.19 54.03 53.57 54.36 54.35 54.32 54.50 54.78 54.89 54.81 54.79 54.52 54.95 51.80 37.80 51.63 54.58 53.23 51.26 50.51 50.72 51.46 50.79 51.33 51.87 51.86 52.14 51.70 50.53 49.58 49.21 48.17 47.47 46.94 46.15 44.87 44.44 42.84 41.04 40.03 38.92 38.56 37.91
56.35 54.71 54.61 54.99 54.97 49.19 51.75 54.70 54.90 54.77 54.92 54.84 54.92 52.64 46.17 50.60 53.53 53.41 52.50 52.33 52.00 51.90 51.28 50.40 51.11 51.77 52.92 53.74 52.79 51.35 50.05 49.05 48.67 48.02 45.95 44.03 42.58 41.39 40.97 39.57 39.25 38.54 38.05
56.62 55.55 55.01 55.24 54.63 54.18 54.39 54.64 54.87 48.96 54.81 54.88 54.52 53.92 51.35 51.12 52.00 53.26 53.61 53.02 52.21 52.32 52.42 50.95 50.75 51.31 51.37 52.06 52.51 52.47 52.40 51.91 50.37 48.84 46.44 43.87 42.49 40.83 41.23 40.74 39.81 39.29 37.98
56.49 55.78 55.70 55.29 55.06 54.20 54.06 54.70 54.66 54.70 54.23 54.60 54.50 54.37 54.22 52.50 52.40 52.54 53.64 53.12 52.52 52.19 52.24 52.28 52.21 51.77 51.65 52.06 51.71 51.06 44.54 38.71 47.00 43.66 46.14 44.56 43.15 42.03 41.44 40.81 39.84 38.84 37.31
56.88 56.22 55.68 55.63 55.22 55.33 55.28 54.37 54.52 54.68 54.27 54.51 54.48 54.56 54.56 53.96 53.12 52.69 52.56 52.53 52.04 52.06 52.31 52.35 52.89 53.02 52.08 51.45 50.26 40.67 37.17 37.48 40.69 40.97 45.38 44.40 43.05 42.17 41.72 40.23 38.48 37.50 36.15

GFSGL_sfc_wetblb_033.txt.gz
Wetbulb
63.80 64.11 64.10 64.75 64.26 63.73 64.20 64.61 64.76 65.29 64.88 64.60 64.84 64.46 64.40 64.17 64.14 64.13 63.90 63.81 63.41 63.54 64.21 63.78 61.12 63.61 62.14 61.49 63.92 65.01 64.34 63.10 59.04 60.07 61.20 61.63 61.19 61.32 62.23 62.39 62.24 61.81 60.48
63.70 64.11 64.09 64.16 63.34 63.56 64.33 64.47 64.89 64.71 64.82 64.92 64.81 64.19 63.82 63.87 63.72 62.85 62.82 62.41 62.11 61.63 61.02 62.35 59.84 63.67 64.20 62.04 61.75 63.15 63.22 63.89 60.72 58.04 60.49 60.85 60.20 61.18 61.08 60.60 61.12 61.88 60.95
63.17 63.82 64.11 63.79 63.21 63.60 63.83 64.33 64.91 64.96 64.36 64.31 64.44 63.95 63.55 63.31 62.76 62.65 62.38 61.82 61.26 61.50 63.22 62.33 60.55 62.55 62.49 63.87 63.91 63.97 63.07 62.44 61.32 60.24 59.11 60.75 60.25 60.73 60.41 61.09 61.37 60.63 61.75
62.64 63.51 63.92 63.96 63.45 63.44 63.90 64.44 64.54 64.88 64.27 64.31 64.64 64.07 63.83 62.00 61.80 61.26 60.85 60.52 60.52 61.03 62.70 61.79 62.41 62.95 63.57 63.88 62.78 62.98 63.66 61.50 60.46 59.56 59.12 58.87 59.18 60.85 60.40 58.74 57.20 59.71 59.43
62.50 62.85 63.66 64.15 64.18 63.85 64.03 64.25 65.07 64.84 64.32 63.20 63.00 62.24 63.37 61.18 60.64 60.57 60.39 60.19 60.76 60.44 61.43 61.36 61.84 61.76 59.59 61.44 62.47 63.63 62.76 60.92 59.94 58.94 58.66 58.30 58.52 58.91 58.80 59.37 56.76 56.66 58.61
62.17 62.54 63.38 63.44 63.49 64.11 64.21 64.10 64.30 64.45 62.98 62.52 61.82 62.32 62.31 60.56 49.50 52.58 58.64 60.53 60.93 61.07 61.02 61.17 62.14 58.79 56.03 52.53 54.04 55.47 59.11 60.00 59.12 58.56 58.68 58.10 58.90 58.64 58.34 58.76 57.11 56.58 55.61
61.64 62.38 62.91 63.22 63.34 63.28 63.23 62.60 63.76 64.13 63.86 62.07 61.25 62.89 61.32 59.23 48.23 49.50 53.33 62.15 61.69 61.09 60.75 60.45 60.06 58.93 59.68 59.68 52.65 52.89 52.89 52.22 54.97 59.98 58.51 58.85 59.89 60.97 61.36 59.38 59.08 58.79 59.03
61.05 61.75 62.64 62.81 63.43 63.96 62.33 62.61 62.70 63.87 63.69 63.15 60.24 59.88 60.23 56.58 46.78 48.05 52.19 62.55 61.75 61.15 60.66 60.32 59.58 58.42 58.54 59.20 60.09 58.17 58.07 57.80 58.36 60.56 61.82 61.57 62.85 62.70 63.31 64.05 61.16 58.40 58.76
60.62 61.12 62.25 63.06 63.50 63.72 61.98 62.41 61.93 62.69 62.90 63.22 61.71 57.86 58.12 54.41 45.70 47.51 56.14 61.30 61.10 60.45 60.14 60.08 60.01 56.70 46.55 49.88 58.14 56.41 57.03 55.84 47.66 46.12 47.29 46.06 47.71 50.09 57.11 60.86 57.08 58.14 55.88
60.95 61.19 62.49 63.18 63.42 63.74 63.16 61.82 61.97 62.86 62.18 62.75 62.05 60.94 54.55 55.28 44.77 47.87 56.51 61.13 61.15 59.64 60.21 59.12 51.84 55.82 45.25 49.16 59.87 58.96 58.42 57.09 56.25 58.68 59.17 53.92 55.74 53.08 51.74 63.82 61.66 60.40 58.04
61.97 61.95 62.28 63.00 63.76 64.40 63.79 62.17 62.04 62.22 61.75 61.38 61.98 62.00 61.02 59.63 55.14 45.33 49.87 61.54 60.74 60.35 60.03 60.39 61.02 45.15 44.43 46.43 50.93 60.24 57.05 57.74 53.86 59.52 59.19 59.28 59.94 60.14 60.01 60.87 62.78 61.33 57.50
62.01 61.53 61.87 62.69 63.31 63.38 63.35 61.73 61.45 61.90 61.01 60.32 60.68 61.29 61.32 59.12 50.17 45.81 45.88 51.51 55.24 61.11 61.81 61.81 60.53 45.52 44.43 44.73 50.58 41.03 43.35 50.65 58.27 58.30 57.29 56.25 56.20 55.29 55.41 54.76 55.69 56.27 57.29
61.48 61.45 61.60 62.26 63.12 63.32 63.11 61.40 60.34 60.94 59.93 59.71 59.69 59.53 59.37 60.23 59.56 45.15 44.25 45.33 47.84 61.71 63.65 56.69 44.43 42.63 42.13 45.36 41.41 41.42 46.24 57.23 56.79 54.54 53.57 53.63 54.51 53.89 53.47 52.83 52.75 52.45 51.31
60.99 61.28 61.46 61.14 61.71 63.20 62.86 62.10 60.81 59.91 59.22 58.58 59.01 59.17 59.51 59.60 61.14 60.29 58.60 58.22 48.95 57.88 50.89 56.16 49.18 47.84 43.77 49.88 51.19 48.98 58.49 58.77 57.56 56.94 56.17 54.91 53.65 53.36 53.10 53.40 51.99 51.12 48.68
61.54 61.10 60.71 60.79 60.64 62.25 62.98 62.62 61.73 62.24 59.76 59.80 59.00 59.80 59.69 59.25 59.83 56.41 57.93 61.84 62.51 57.45 56.82 58.03 58.77 58.62 57.46 57.28 57.93 57.60 57.86 57.35 57.60 57.49 55.51 54.26 53.81 54.01 53.22 53.50 52.48 51.87 50.13
60.76 60.48 60.12 60.10 59.99 60.82 61.58 60.69 43.60 48.81 47.50 45.89 47.43 55.27 59.84 50.43 42.71 41.99 44.41 43.97 41.61 42.48 58.18 59.54 59.43 58.92 57.34 57.02 57.14 56.49 56.70 53.86 57.24 56.62 56.21 55.48 53.89 53.66 52.72 52.43 52.60 51.50 47.66
61.49 61.54 60.04 58.16 59.70 59.63 60.20 60.07 59.38 54.15 44.21 43.31 43.74 44.48 46.66 49.60 41.24 40.00 39.83 39.50 38.60 43.28 59.35 59.16 59.95 59.24 58.48 58.18 57.78 57.88 57.30 57.81 57.96 56.88 56.22 55.65 54.89 54.20 50.56 51.69 51.51 49.55 46.19
62.08 50.86 60.37 60.23 59.73 59.71 59.92 59.95 60.22 59.86 59.51 59.85 46.08 48.32 42.56 42.72 40.46 39.02 37.93 42.75 51.33 49.69 59.81 59.71 59.19 59.27 59.19 58.86 57.96 57.12 57.48 57.30 56.35 56.36 55.79 55.37 54.79 53.79 52.32 51.89 50.18 47.19 42.31
61.16 59.17 60.52 60.41 60.20 58.36 60.23 60.27 60.18 60.04 59.98 60.31 60.90 46.79 45.83 40.32 38.58 37.15 38.35 57.38 56.22 55.79 56.97 57.84 59.21 59.58 59.08 58.80 58.77 57.91 56.98 56.19 55.67 55.28 55.28 54.89 54.86 54.53 53.46 52.44 49.70 38.58 39.22
60.91 52.29 55.40 60.18 59.47 59.36 59.70 59.83 59.63 59.60 59.81 60.01 59.95 59.73 57.43 50.29 55.89 54.96 51.89 55.86 59.66 58.58 57.25 56.27 56.89 57.80 58.30 58.30 57.39 56.66 55.95 54.12 54.30 54.67 55.03 54.66 54.62 54.29 53.20 51.41 47.75 43.24 39.16
60.63 58.31 51.27 59.57 59.59 59.46 59.40 59.39 59.74 59.80 59.71 59.83 60.15 59.03 47.16 58.37 59.47 59.73 58.48 57.84 59.14 60.05 59.64 58.60 57.36 56.55 56.67 56.66 56.35 55.56 55.14 55.21 54.61 54.52 54.28 53.89 53.72 51.43 52.07 48.33 42.05 40.79 38.84
60.90 59.52 58.20 59.17 59.67 59.45 59.92 60.08 59.91 59.80 59.94 59.89 60.24 58.75 39.23 56.83 59.90 59.74 59.87 59.60 59.89 60.68 60.82 60.34 59.39 58.94 57.59 56.43 56.23 55.90 55.47 54.49 53.54 53.40 53.69 53.17 50.69 51.64 48.04 41.67 39.45 38.96 39.29
60.62 59.53 58.74 59.68 60.01 53.79 58.08 60.18 59.93 60.00 60.01 60.24 60.67 60.07 54.72 57.17 59.30 60.30 60.31 60.40 60.04 60.06 60.42 59.97 59.81 59.86 59.98 59.57 59.01 57.70 56.15 55.30 55.23 54.81 53.94 53.12 51.29 47.89 46.06 45.35 43.19 39.33 38.49
60.97 60.15 59.19 59.67 59.48 59.30 59.45 59.62 60.10 53.01 59.95 60.38 60.45 60.38 59.70 57.93 58.98 60.13 61.00 61.11 60.53 60.16 59.98 59.54 59.19 59.54 59.62 59.53 59.44 59.39 58.46 57.85 57.08 55.76 54.97 52.81 50.47 45.40 46.38 44.87 43.96 40.30 38.94
61.07 60.30 60.36 60.74 59.91 59.51 59.66 59.74 60.17 60.23 59.67 60.04 60.42 60.50 60.71 60.04 59.21 59.68 60.34 60.75 60.53 59.92 59.51 59.32 59.24 58.68 58.90 58.77 58.87 59.12 52.71 38.83 54.05 48.32 55.09 53.29 50.57 47.11 44.90 43.62 41.29 39.63 38.95
60.85 60.53 60.30 60.30 60.23 59.58 60.18 59.62 60.15 60.17 60.06 59.90 60.32 60.79 60.92 60.68 60.35 60.00 60.01 60.09 59.91 59.50 59.37 59.38 59.35 59.26 58.88 58.28 57.98 50.03 38.35 38.68 46.40 42.01 53.48 51.70 47.72 46.37 44.12 41.61 40.56 39.42 38.23

GFSGL_sfc_wetblb_036.txt.gz
Wetbulb
65.83 66.50 66.61 67.17 66.79 66.23 66.16 66.70 66.61 66.63 66.74 66.37 66.28 65.88 65.85 65.42 65.76 65.69 65.47 65.41 65.25 65.85 65.98 64.79 61.13 64.21 64.53 64.36 64.42 63.89 61.96 62.04 60.09 60.66 60.74 61.62 61.14 61.12 62.10 61.88 62.35 62.30 60.57
65.70 66.20 66.33 66.54 66.60 65.88 65.69 66.32 66.84 66.02 66.53 66.50 66.20 65.51 65.59 65.70 65.90 65.32 64.62 64.74 64.79 64.29 63.47 63.63 63.70 64.82 63.18 63.06 64.17 63.34 63.57 64.89 62.15 58.85 59.84 60.30 60.44 61.18 61.58 61.07 61.25 61.45 60.77
65.24 65.82 66.34 65.83 66.07 65.95 65.88 66.15 66.31 66.17 66.37 66.55 66.22 65.37 65.09 65.45 65.37 65.45 64.76 64.76 63.92 64.75 64.50 63.91 64.11 64.22 62.30 62.49 64.38 65.31 64.53 63.79 61.36 59.37 58.13 59.96 60.24 60.84 60.12 60.79 60.17 60.39 61.11
64.80 65.34 65.83 65.64 65.74 66.03 66.07 66.08 65.99 65.99 65.07 65.81 65.72 65.43 65.21 65.22 65.46 64.96 64.18 64.22 63.33 64.88 64.31 65.45 64.82 64.18 64.67 65.49 65.43 64.52 64.20 62.78 61.79 59.45 58.57 58.63 59.35 60.05 60.23 58.85 58.13 60.12 58.88
64.18 64.38 65.80 66.26 66.26 65.99 65.97 66.18 65.77 65.97 64.89 65.25 64.51 65.16 64.44 64.65 64.57 64.09 63.82 64.11 62.46 63.28 63.50 63.49 63.90 62.78 58.78 61.88 66.50 64.35 64.20 61.46 60.81 58.95 57.93 58.05 58.25 58.33 58.01 58.47 56.59 58.21 58.83
63.88 63.86 65.58 65.69 65.63 65.73 65.69 66.03 65.77 65.37 64.94 64.44 64.30 64.20 63.95 63.23 51.62 53.56 60.26 63.22 62.61 62.70 62.18 62.60 63.61 61.30 58.74 52.88 53.93 55.20 62.37 60.73 59.59 58.63 58.03 57.47 58.37 58.63 58.67 56.59 56.47 55.77 57.08
63.34 63.88 64.59 65.27 64.91 65.47 65.06 64.87 65.59 65.64 64.94 62.86 63.12 63.57 63.58 63.54 48.80 50.49 53.66 62.82 61.86 62.10 63.39 63.30 62.43 62.92 62.26 62.69 53.15 52.68 52.60 51.97 56.90 60.52 58.40 59.34 58.81 59.73 58.86 56.91 58.75 58.05 57.84
62.83 63.22 64.11 64.68 64.56 65.41 64.31 64.35 65.83 65.84 65.16 60.98 60.98 63.42 62.81 60.45 48.21 48.93 51.11 62.93 62.78 61.92 62.73 62.48 62.27 63.13 60.36 60.94 60.11 59.27 57.62 58.59 61.35 61.53 61.04 60.83 60.95 62.13 63.76 61.79 60.22 62.33 60.72
62.20 62.78 63.37 64.47 64.97 64.76 63.69 64.22 65.44 65.80 65.08 64.29 62.99 61.59 62.17 60.42 46.94 49.29 57.11 62.54 61.72 60.59 60.58 59.35 58.99 60.56 47.41 50.03 58.46 57.95 57.22 56.23 48.47 48.28 50.81 50.56 50.20 52.56 58.72 62.79 60.25 59.21 57.75
61.84 62.52 63.34 64.78 65.52 65.17 64.45 64.17 65.39 65.78 65.15 64.52 59.39 59.93 56.23 58.66 45.67 48.02 57.51 62.42 59.96 59.17 60.04 59.43 49.80 54.30 46.94 50.74 60.42 59.46 56.99 58.92 60.85 58.97 57.29 53.72 56.14 55.51 51.97 65.75 62.28 60.22 60.20
62.22 62.91 63.34 64.93 65.72 66.60 65.56 64.94 65.02 64.40 65.12 63.52 62.28 61.47 62.75 60.75 57.34 47.84 50.20 61.52 59.82 58.93 59.85 61.00 56.14 44.36 46.04 49.16 52.42 62.25 58.02 60.56 57.79 62.26 62.97 63.18 61.87 62.01 63.37 65.40 65.17 64.32 60.90
62.61 62.37 63.03 64.09 65.08 66.04 65.81 64.76 64.11 64.23 63.80 64.39 63.04 61.84 63.53 61.70 53.39 46.92 44.94 52.63 55.69 60.82 61.51 62.52 56.80 43.29 43.56 46.35 52.19 43.41 45.72 53.92 62.10 61.44 60.79 61.33 61.62 62.26 62.68 63.19 62.76 62.35 61.75
62.88 62.60 63.14 63.82 64.28 65.96 65.62 64.25 63.16 63.42 62.06 62.31 63.80 62.50 61.67 61.16 60.29 46.94 45.49 45.85 49.04 62.19 64.40 52.18 43.68 42.19 42.76 45.96 42.63 45.23 45.07 62.40 62.66 62.02 61.48 61.50 61.87 61.26 60.03 59.14 58.64 57.78 57.10
62.96 63.05 63.21 63.11 63.06 65.11 65.64 64.60 63.20 62.02 60.49 60.55 61.47 63.17 63.61 62.42 61.26 59.79 62.21 62.09 50.91 59.99 52.12 59.19 52.15 51.37 46.74 52.40 52.87 54.31 62.79 62.90 62.14 61.11 59.25 58.38 57.60 56.29 56.38 57.24 56.17 55.82 53.87
63.35 63.46 63.53 63.07 63.02 63.65 64.80 64.70 63.92 64.80 60.44 59.86 60.87 62.37 63.45 63.80 63.67 58.33 59.86 63.62 64.36 61.11 62.10 62.15 62.91 62.89 61.31 61.02 60.77 60.04 61.35 60.82 59.89 58.80 57.64 57.30 57.25 57.43 57.51 58.28 57.63 56.10 53.72
62.99 63.21 63.28 62.64 62.55 62.75 62.95 63.28 43.64 48.40 49.50 47.73 47.43 54.81 60.99 51.67 47.26 46.96 48.85 46.37 45.36 47.60 61.69 62.74 62.87 62.28 60.92 60.91 61.01 61.01 61.27 58.09 60.84 60.59 59.69 58.79 57.88 57.71 57.41 57.50 57.66 57.47 55.84
65.10 64.52 63.03 60.42 62.29 61.56 61.81 62.16 61.48 56.01 46.70 45.09 44.98 45.42 45.86 48.24 43.65 43.45 42.08 41.01 42.22 47.12 63.62 63.73 63.09 62.14 60.81 60.21 60.38 60.52 60.28 60.39 61.35 60.15 59.91 59.28 58.54 58.14 55.74 56.71 56.90 56.90 54.61
65.54 52.71 63.57 62.36 62.25 61.71 61.92 61.58 61.11 60.63 60.93 61.83 46.57 50.17 43.71 41.66 40.22 40.27 39.68 44.45 56.19 53.84 62.52 62.58 62.80 62.63 61.38 60.46 60.48 60.41 60.91 61.17 60.88 60.51 60.36 60.04 59.14 57.91 56.26 56.45 56.56 56.09 54.07
65.05 63.55 63.39 62.93 62.53 59.98 62.18 61.92 61.00 60.68 60.46 61.05 61.86 48.81 45.93 39.98 38.50 37.71 39.93 60.63 59.95 60.01 60.42 60.98 61.60 61.43 61.50 61.50 61.50 61.04 60.88 60.60 60.54 60.29 60.28 59.66 58.99 58.20 57.12 57.11 56.75 45.19 46.46
65.32 55.72 58.44 63.39 62.48 61.78 61.45 61.51 61.04 60.96 61.03 60.54 60.76 61.29 61.13 53.28 58.27 57.84 55.00 58.83 59.90 59.17 59.76 60.26 60.93 61.77 61.84 61.70 61.39 61.26 60.77 59.60 59.84 59.90 59.84 59.75 59.28 58.67 57.62 57.27 56.77 52.78 49.05
65.00 63.94 55.46 63.44 62.96 62.35 61.36 61.23 61.32 61.19 61.15 61.26 61.38 60.30 48.88 60.66 60.38 60.52 61.42 61.56 61.46 61.39 61.15 60.06 59.11 59.56 60.58 61.07 61.30 60.44 59.89 59.84 59.79 59.37 59.41 59.26 58.87 57.54 58.15 57.89 56.98 51.86 47.91
65.01 64.36 62.42 63.08 63.48 62.79 62.22 61.55 61.36 61.32 61.32 61.23 61.83 60.10 41.21 61.07 60.35 60.37 60.71 61.41 62.20 62.69 62.61 62.18 61.36 60.50 59.47 59.31 59.74 59.92 59.53 58.88 59.21 59.16 58.87 58.76 58.31 57.94 57.54 57.07 55.37 49.52 46.52
64.83 64.30 62.77 63.00 63.43 56.66 61.66 62.27 61.34 61.22 61.39 61.52 61.93 61.61 59.51 61.62 61.59 61.37 61.49 62.00 62.53 62.41 62.90 62.78 62.38 61.87 61.40 60.80 60.29 59.56 58.79 58.74 59.28 59.79 59.06 58.38 57.64 57.33 56.66 55.69 51.88 48.51 46.75
64.81 64.45 63.48 62.87 63.17 63.22 63.01 62.50 62.61 54.45 61.06 61.50 61.66 61.68 62.11 62.23 62.30 62.44 62.83 63.32 63.53 63.75 63.56 62.92 62.54 62.00 62.13 61.76 61.71 61.44 60.71 60.29 59.98 59.48 59.66 58.73 57.79 54.14 56.51 53.24 51.33 50.11 47.34
64.74 64.49 64.21 63.48 63.39 63.13 63.16 63.04 63.24 63.09 62.26 62.01 61.97 62.31 62.54 63.08 62.89 63.10 63.45 63.77 64.25 64.30 64.16 63.85 63.49 63.00 62.55 62.18 62.02 62.08 56.04 40.36 57.40 52.41 60.75 59.69 58.58 57.53 54.79 52.96 51.71 46.90 42.34
64.01 64.44 64.33 64.11 63.73 63.61 63.35 63.12 63.19 63.51 63.20 63.07 63.02 63.30 63.34 63.43 63.68 63.68 63.72 64.00 63.98 64.22 64.41 64.09 63.95 63.72 63.24 62.51 62.09 54.27 40.20 38.77 50.58 39.56 59.22 59.57 58.07 56.62 53.96 52.50 49.17 42.97 40.08